CZ-6A DEB, 55878

Orbit data source: Space-Track

CZ-6A DEB, 55878 is space debris in SSO originally from a launch on Fri, 11 Nov 2022 UTC launched from the Taiyaun Space Center, China (TSC). Debris objects in space refer to the collection of defunct objects orbiting the Earth. Examples of debris include non-operational satellites, rocket bodies, and fragments generated from explosions, collisions, or faulty payload assembly.

Loading next visibility...
Identifier
55878, 2022-151AAA
Orbit
SSO
Last TLE update
15 hours ago
Origin
Manufacturer
SAST
Mission
Spacecraft
Bus & Motor
Unknown
Mass
Unknown
Launch date (UTC)
2022-11-11 (3 years ago)
Launch vehicle
Unknown
Launch site
Taiyaun Space Center, China (TSC)
Object type
Payload
Rocket body
Debris
Shape & HBR
Unknown
Radar Cross Section
Small (<0.1 m²)

Expand to show TLE details & history

TLE from 15 hours ago
0 CZ-6A DEB
1 55878U 22151AAA 25133.09927455  .00027209  00000-0  31032-2 0  9990
2 55878  98.6451 192.1595 0095950  39.2961 321.5162 14.82760494120365
Epoch: 2025-05-13T02:22Z
Definitive object data (Epoch: 2025-05-13T02:22:57.321Z)
Latitude
-0.00004°
Longitude
-74.6822°
Altitude
571.301 km
Speed
7.604 km/s
True Right ascension
12h 48m 38s
True Declination
0° 00' 00"
Sunlit
Object was in full shadow at TLE epoch
Visualization TLE readout
Latitude
-16.48543°
Longitude
-71.46444°
Altitude
587.05 km
Speed
7.587 km/s
Apparent Right ascension
13h 09m 04s
Apparent Declination
-27° 32' 55"
Sunlit
Object is in full shadow
Visualization observer readout
Local Sidereal Time
01:19:24
Azimuth
10.592° NNE
Elevation
-77.449°
Doppler factor
1
Orbital elements
Apogee altitude
684.821 km
Perigee altitude
550.571 km
Semi-major axis
6,995.833 km
Eccentricity
0.009595
Inclination
98.6451°
RAAN
192.1595°
Arg. of periapsis
39.2961°
True anomaly
320.82552°
Mean anomaly
321.5162°
Eccentric anomaly
321.17151°
Mean motion
3.70923 °/min
BSTAR
0.0031032
Orbital period
97.06 mins
Loading maneuver chart data...
Loading SW <> Apogee altitude chart data...
Loading historical data...
Loading historical data...
Loading historical data...
Loading historical data...
Loading historical data...
Loading historical data...
Loading historical data...

CZ-6A DEB Visibility forecast

Observer location: undefined°, undefined°

Span
Click to sort rows by Start time (UTC) header in descending order
Start Az.
Max El. time (UTC)
Max El. Az.
Max El.
End time (UTC)
End Az.
6 mins2025-05-13 17:31:05.364Z346.84° N2025-05-13 17:34:05.364Z289.419° WNW28.162°2025-05-13 17:37:05.364Z233.739° WSW
5 mins2025-05-14 04:26:05.364Z209.455° SW2025-05-14 04:28:05.364Z261.841° W29.838°2025-05-14 04:31:05.364Z323.882° NNW
6 mins2025-05-14 16:13:05.364Z47.612° ENE2025-05-14 16:15:05.364Z87.772° E28.023°2025-05-14 16:19:05.364Z160.311° S
|